When you browse on this site, cookies collect data to enhance your experience and personalize the content and advertising you see.
Visit our Privacy Policy to learn more. By continuing to use the site, you agree to this use of cookies and data.
EN

Hourly Weather Porto Alegre

Today, 29 September, Tuesday

Time Temperature Precipitation Wind Pressure Humidity
00:00 +16°C° 0 mm 1 mps 759 mmHg 78%
01:00 +15°C° 0 mm 1 mps 759 mmHg 79%
02:00 +15°C° 0 mm 1 mps 759 mmHg 80%
03:00 +13°C° 0 mm 0 mps 759 mmHg 81%
04:00 +13°C° 0 mm 0 mps 759 mmHg 82%
05:00 +13°C° 0 mm 0 mps 759 mmHg 83%
06:00 +13°C° 0 mm 0 mps 760 mmHg 83%
07:00 +15°C° 0 mm 1 mps 760 mmHg 76%
08:00 +18°C° 0 mm 1 mps 760 mmHg 70%
09:00 +19°C° 0 mm 2 mps 761 mmHg 63%
10:00 +20°C° 0 mm 2 mps 760 mmHg 58%
11:00 +21°C° 0 mm 2 mps 760 mmHg 52%
12:00 +24°C° 0 mm 3 mps 759 mmHg 47%
13:00 +24°C° 0 mm 3 mps 759 mmHg 49%
14:00 +24°C° 0 mm 3 mps 758 mmHg 51%
15:00 +25°C° 0 mm 4 mps 758 mmHg 53%
16:00 +22°C° 0.3 mm 4 mps 757 mmHg 61%
17:00 +21°C° 0.3 mm 3 mps 757 mmHg 69%
18:00 +20°C° 0.3 mm 3 mps 757 mmHg 78%
19:00 +19°C° 0.3 mm 2 mps 757 mmHg 81%
20:00 +19°C° 0.3 mm 2 mps 757 mmHg 84%
21:00 +19°C° 0.3 mm 1 mps 757 mmHg 86%
22:00 +19°C° 0 mm 1 mps 757 mmHg 87%
23:00 +19°C° 0 mm 1 mps 757 mmHg 87%

Tomorrow, 30 September, Wednesday

Time Temperature Precipitation Wind Pressure Humidity
00:00 +19°C° 0 mm 1 mps 756 mmHg 88%
01:00 +19°C° 0.7 mm 1 mps 756 mmHg 89%
02:00 +17°C° 0.7 mm 0 mps 756 mmHg 90%
03:00 +17°C° 0.7 mm 0 mps 755 mmHg 91%
04:00 +19°C° 0.8 mm 1 mps 755 mmHg 92%
05:00 +19°C° 0.8 mm 1 mps 755 mmHg 93%
06:00 +20°C° 0.8 mm 1 mps 756 mmHg 94%
07:00 +21°C° 0.2 mm 1 mps 756 mmHg 90%
08:00 +22°C° 0.2 mm 1 mps 756 mmHg 85%
09:00 +24°C° 0.2 mm 1 mps 756 mmHg 81%
10:00 +26°C° 0 mm 1 mps 756 mmHg 74%
11:00 +28°C° 0 mm 2 mps 756 mmHg 67%
12:00 +30°C° 0 mm 2 mps 755 mmHg 61%
13:00 +31°C° 0 mm 2 mps 755 mmHg 59%
14:00 +33°C° 0 mm 3 mps 754 mmHg 57%
15:00 +34°C° 0 mm 3 mps 754 mmHg 55%
16:00 +31°C° 0.1 mm 2 mps 754 mmHg 60%
17:00 +29°C° 0.1 mm 2 mps 753 mmHg 65%
18:00 +28°C° 0.1 mm 1 mps 753 mmHg 71%
19:00 +27°C° 0.2 mm 1 mps 753 mmHg 74%
20:00 +26°C° 0.2 mm 1 mps 753 mmHg 77%
21:00 +25°C° 0.2 mm 2 mps 753 mmHg 80%
22:00 +25°C° 0.3 mm 1 mps 753 mmHg 81%
23:00 +24°C° 0.3 mm 1 mps 753 mmHg 82%

Day after tomorrow, 1 October, Thursday

Time Temperature Precipitation Wind Pressure Humidity
00:00 +24°C° 0.3 mm 1 mps 753 mmHg 83%
01:00 +24°C° 0.2 mm 1 mps 752 mmHg 83%
02:00 +24°C° 0.2 mm 2 mps 752 mmHg 83%
03:00 +24°C° 0.2 mm 2 mps 751 mmHg 83%
04:00 +24°C° 0.1 mm 2 mps 751 mmHg 84%
05:00 +23°C° 0.1 mm 2 mps 751 mmHg 85%
06:00 +23°C° 0.1 mm 2 mps 751 mmHg 86%
07:00 +24°C° 0.5 mm 2 mps 752 mmHg 86%
08:00 +24°C° 0.5 mm 2 mps 753 mmHg 85%
09:00 +24°C° 0.5 mm 2 mps 754 mmHg 85%
10:00 +25°C° 0.1 mm 2 mps 754 mmHg 84%
11:00 +25°C° 0.1 mm 3 mps 754 mmHg 83%
12:00 +25°C° 0.1 mm 3 mps 754 mmHg 82%
13:00 +25°C° 0 mm 3 mps 754 mmHg 82%
14:00 +25°C° 0 mm 4 mps 754 mmHg 81%
15:00 +25°C° 0 mm 4 mps 753 mmHg 81%
16:00 +23°C° 0 mm 4 mps 753 mmHg 82%
17:00 +23°C° 0 mm 4 mps 753 mmHg 84%
18:00 +23°C° 0 mm 4 mps 753 mmHg 85%
19:00 +22°C° 0.2 mm 4 mps 754 mmHg 87%
20:00 +22°C° 0.2 mm 4 mps 755 mmHg 88%
21:00 +22°C° 0.2 mm 4 mps 755 mmHg 90%
22:00 +21°C° 0.2 mm 3 mps 756 mmHg 91%
23:00 +21°C° 0.2 mm 3 mps 756 mmHg 92%

2 October, Friday

Time Temperature Precipitation Wind Pressure Humidity
00:00 +21°C° 0.2 mm 3 mps 756 mmHg 93%
01:00 +21°C° 0.8 mm 4 mps 756 mmHg 93%
02:00 +20°C° 0.8 mm 4 mps 756 mmHg 94%
03:00 +20°C° 0.8 mm 5 mps 755 mmHg 94%
04:00 +19°C° 2.4 mm 6 mps 756 mmHg 93%
05:00 +17°C° 2.4 mm 6 mps 756 mmHg 92%
06:00 +16°C° 2.4 mm 7 mps 757 mmHg 91%
07:00 +16°C° 4.6 mm 7 mps 758 mmHg 91%
08:00 +16°C° 4.6 mm 6 mps 759 mmHg 91%
09:00 +15°C° 4.6 mm 6 mps 760 mmHg 91%
10:00 +15°C° 5 mm 6 mps 760 mmHg 91%
11:00 +15°C° 5 mm 6 mps 761 mmHg 91%
12:00 +15°C° 5 mm 6 mps 761 mmHg 91%
13:00 +15°C° 2.7 mm 6 mps 761 mmHg 90%
14:00 +14°C° 2.7 mm 5 mps 762 mmHg 89%
15:00 +14°C° 2.7 mm 5 mps 762 mmHg 88%
16:00 +14°C° 1.3 mm 5 mps 762 mmHg 88%
17:00 +14°C° 1.3 mm 6 mps 763 mmHg 87%
18:00 +13°C° 1.3 mm 6 mps 763 mmHg 87%
19:00 +13°C° 0.2 mm 5 mps 764 mmHg 86%
20:00 +13°C° 0.2 mm 5 mps 764 mmHg 84%
21:00 +13°C° 0.2 mm 5 mps 765 mmHg 83%
22:00 +13°C° 0 mm 4 mps 765 mmHg 82%
23:00 +13°C° 0 mm 4 mps 765 mmHg 80%

3 October, Saturday

Time Temperature Precipitation Wind Pressure Humidity
00:00 +13°C° 0 mm 4 mps 766 mmHg 78%
01:00 +13°C° 0.1 mm 4 mps 766 mmHg 79%
02:00 +13°C° 0.1 mm 4 mps 765 mmHg 79%
03:00 +13°C° 0.1 mm 4 mps 765 mmHg 79%
04:00 +13°C° 0.2 mm 4 mps 765 mmHg 79%
05:00 +13°C° 0.2 mm 4 mps 766 mmHg 80%
06:00 +13°C° 0.2 mm 4 mps 766 mmHg 80%
07:00 +13°C° 0 mm 5 mps 766 mmHg 78%
08:00 +14°C° 0 mm 5 mps 767 mmHg 75%
09:00 +14°C° 0 mm 5 mps 767 mmHg 73%
10:00 +14°C° 0 mm 5 mps 767 mmHg 71%
11:00 +15°C° 0 mm 5 mps 767 mmHg 69%
12:00 +15°C° 0 mm 6 mps 767 mmHg 67%
13:00 +15°C° 0.7 mm 5 mps 766 mmHg 71%
14:00 +14°C° 0.7 mm 5 mps 766 mmHg 75%
15:00 +14°C° 0.7 mm 5 mps 765 mmHg 79%
16:00 +13°C° 1.9 mm 5 mps 765 mmHg 82%
17:00 +13°C° 1.9 mm 5 mps 765 mmHg 85%
18:00 +13°C° 1.9 mm 5 mps 765 mmHg 88%
19:00 +13°C° 2.2 mm 5 mps 765 mmHg 88%
20:00 +13°C° 2.2 mm 6 mps 765 mmHg 88%
21:00 +13°C° 2.2 mm 6 mps 765 mmHg 88%
22:00 +13°C° 2.1 mm 6 mps 765 mmHg 89%
23:00 +13°C° 2.1 mm 6 mps 765 mmHg 89%

4 October, Sunday

Time Temperature Precipitation Wind Pressure Humidity
00:00 +13°C° 2.1 mm 5 mps 765 mmHg 89%
01:00 +13°C° 0.6 mm 5 mps 764 mmHg 89%
02:00 +13°C° 0.6 mm 5 mps 764 mmHg 90%
03:00 +13°C° 0.6 mm 6 mps 763 mmHg 90%
04:00 +13°C° 2.3 mm 6 mps 763 mmHg 90%
05:00 +13°C° 2.3 mm 6 mps 763 mmHg 91%
06:00 +13°C° 2.3 mm 6 mps 763 mmHg 91%
07:00 +14°C° 0.5 mm 6 mps 763 mmHg 90%
08:00 +14°C° 0.5 mm 5 mps 763 mmHg 90%
09:00 +14°C° 0.5 mm 5 mps 763 mmHg 89%
10:00 +15°C° 0.5 mm 5 mps 763 mmHg 87%
11:00 +16°C° 0.5 mm 5 mps 762 mmHg 85%
12:00 +16°C° 0.5 mm 5 mps 762 mmHg 83%
13:00 +16°C° 0.2 mm 5 mps 761 mmHg 84%
14:00 +16°C° 0.2 mm 5 mps 761 mmHg 85%
15:00 +16°C° 0.2 mm 5 mps 760 mmHg 85%
16:00 +16°C° 0.6 mm 5 mps 760 mmHg 87%
17:00 +16°C° 0.6 mm 5 mps 759 mmHg 89%
18:00 +16°C° 0.6 mm 5 mps 759 mmHg 90%
19:00 +16°C° 0.6 mm 5 mps 759 mmHg 91%
20:00 +16°C° 0.6 mm 5 mps 759 mmHg 91%
21:00 +16°C° 0.6 mm 5 mps 759 mmHg 92%
22:00 +17°C° 0.2 mm 4 mps 759 mmHg 92%
23:00 +17°C° 0.2 mm 3 mps 758 mmHg 93%
Show more